SCP
0 0 0 0 0 0 0 0 0 0 0 0 0 0 0 0 0 0 0 0 0 0 0 0 0 0 0 0 0 0 0 0 0 0 0 0 0 0 0 0 0 0 0 0
0 0 0 0 0 0 0 0 0 0 0 0 0 0 0 0 0 0 0 0 0 0 0 0 0 0 0 0 0 0 0 0 0 0 0 0 0 0 0 0 0 0 0 0
0 0 0 0 0 0 0 0 0 0 0 0 0 0 0 0 0 0 0 0 0 0 0 0 0 0 0 0 0 0 0 0 0 0 0 0 0 0 0 0 0 0 0 0
0 0 0 0 0 0 0 0 0 0 0 0 0 0 0 0 0 0 0 0 0 0 0 0 0 0 0 0 0 0 0 0 0 0 0 0 0 0 0 0 0 0 0 0
0 0 0 0 0 0 0 0 0 0 0 0 0 0 0 0 0 0 0 0 0 0 0 0 0 0 0 0 0 0 0 0 0 0 0 0 0 0 0 0 0 0 0 0
0 0 0 0 0 0 0 0 0 0 0 0 0 0 0 0 0 0 0 0 0 0 0 0 0 0 0 0 0 0 0 0 0 0 0 0 0 0 0 0 0 0 0 0
0 0 0 0 0 0 0 0 0 0 0 0 0 0 0 0 0 0 0 0 0 0 0 0 0 0 0 0 0 0 0 0 0 0 0 0 0 0 0 0 0 0 0 0
0 0 0 0 0 0 0 0 0 0 0 0 0 0 0 0 0 0 0 0 0 0 0 0 0 0 0 0 0 0 0 0 0 0 0 0 0 0 0 0 0 0 0 0
0 0 0 0 0 0 0 0 0 0 0 0 0 0 0 0 0 0 0 0 0 0 0 0 0 0 0 0 0 0 0 0 0 0 0 0 0 0 0 0 0 0 0 0
0 0 0 0 0 0 0 0 0 0 0 0 0 0 0 0 0 0 0 0 0 0 0 0 0 0 0 0 0 0 0 0 0 0 0 0 0 0 0 0 0 0 0 0
0 0 0 0 0 0 0 0 0 0 0 0 0 0 0 0 0 0 0 0 0 0 0 0 0 0 0 0 0 0 0 0 0 0 0 0 0 0 0 0 0 0 0 0
0 0 0 0 0 0 0 0 0 0 0 0 0 0 0 0 0 0 -0 0 0 0 0 0 0 0 0 0 0 0 0 0 0 0 0 0 0 0 0 0 0 0 0 0
0 0 0 0 0 0 0 0 0 0 0 0 0 0 0 0 0 0 0 0 0 0 0 0 0 0 0 0 0 0 0 0 0 0 0 0 0 0 0 0 0 0 0 0
0 0 0 0 0 0 0 0 0 0 0 0 0 0 0 0 0 0 0 0 0 0 0 -0 -0 0 -0 -0 0 0 0 0 0 0 0 0 0 0 0 0 0 0 0 0
0 0 0 0 0 0 0 0 0 0 0 0 0 0 0 0 0 0 0 0 0 0 0 0 0 0 0 0 0 0 0 0 0 0 0 0 0 0 0 0 0 0 0 0
0 0 0 0 0 0 0 0 0 0 0 0 0 0 0 0 0 0 0 0 0 0 0 0 0 0 0 0 0 0 0 0 0 0 -0 0 0 0 0 0 0 0 0 0
0 0 0 0 0 0 0 0 0 0 0 0 0 0 0 0 0 0 0 0 0 0 0 0 0 0 0 0 0 0 0 0 0 0 0 0 0 0 0 0 0 0 0 0
0 0 0 0 0 0 0 0 0 0 0 0 0 0 0 0 0 0 0 -0 0 0 0 0 0 0 0 0 0 0 0 0 0 0 0 0 0 0 0 0 0 0 0 0
0 0 0 0 0 0 0 0 0 0 0 0 0 0 0 0 0 0 0 0 0 0 0 0 0 0 0 0 0 0 0 0 0 0 0 0 0 0 0 0 0 0 0 0
0 0 0 0 0 0 0 0 0 0 0 0 0 0 0 0 0 0 0 0 0 0 0 0 0 0 0 0 0 0 0 0 0 0 -0 0 0 0 0 0 0 0 0 0
0 0 0 0 0 0 0 0 0 0 0 0 0 0 0 0 0 0 0 -0 -0 0 0 0 0 0 0 0 0 0 0 0 0 0 0 0 0 0 0 0 0 0 0 0
0 0 0 0 0 0 0 0 0 0 0 0 0 0 0 0 0 0 0 0 0 0 0 0 0 0 0 0 0 0 0 -0 -0 -0 0 0 0 0 -0 0 0 0 0 0
0 0 0 0 0 0 0 0 0 0 0 0 0 0 0 0 0 0 0 0 0 0 0 0 0 0 0 -0 -0 -0 -0 -0 -0 -0 -0 0 0 0 0 0 0 0 0 0
0 0 0 0 0 0 0 0 0 0 0 0 0 0 0 0 0 0 0 0 0 0 0 0 0 0 0 -0 -0 -0 -0 -0 -0 -0 -0 -0 0 0 0 0 0 0 0 -0
0 0 0 0 0 0 0 0 0 0 0 0 0 0 0 0 0 0 0 0 0 0 0 0 0 -0 -0 -0 -0 -0 -0 -0 -0 -0 0 0 0 0 0 0 0 0 0 0
0 0 0 0 0 0 0 0 0 0 0 0 0 0 0 0 0 0 0 0 0 0 0 -0 -0 -0 -0 -0 -0 -0 -0 -0 0 0 0 0 0 0 0 0 0 0 0 0
0 0 0 0 0 0 0 0 0 0 0 0 0 0 0 0 0 0 0 0 0 -0 -0 -0 -0 -0 -0 -0 -0 -0 -0 0 0 0 0 0 0 0 0 0 0 0 0 0
Wind_Speed_500mb
61 60 62 57 52 58 50 53 10 38 62 29 19 26 21 15 13 30 24 6 23 44 32 27 25 34 27 34 24 24 18 7 23 38 3 5 4 19 30 17 17 22 21 57
71 67 61 59 51 42 50 26 39 40 89 15 14 20 22 16 17 23 23 31 26 26 33 22 28 35 16 32 23 23 18 7 9 22 8 3 15 12 21 26 28 64 22 59
35 31 47 58 60 55 36 28 5 13 45 27 36 36 38 26 38 41 16 13 23 17 24 30 25 36 14 31 28 8 35 13 28 42 36 7 11 19 33 44 35 41 49 70
42 35 25 34 43 59 47 22 13 28 11 27 27 37 20 43 28 29 34 12 34 41 33 44 46 52 34 8 11 12 13 22 29 46 50 41 46 42 43 51 55 51 70 56
40 45 38 26 19 36 44 22 11 18 12 56 50 42 36 48 48 35 32 42 45 49 51 47 42 49 43 31 9 17 14 40 47 59 68 64 57 44 62 62 76 67 58 64
38 46 44 42 38 25 19 29 43 17 26 22 30 45 63 60 56 50 67 52 41 39 55 83 95 83 51 22 32 27 18 21 27 43 50 38 31 72 67 81 67 63 64 74
37 37 39 46 33 34 30 35 40 12 8 18 31 45 54 65 72 67 62 74 49 90 79 40 32 41 51 53 39 49 28 31 25 20 14 31 42 45 64 77 74 64 59 69
41 38 40 38 33 36 42 41 28 11 9 11 28 27 28 61 85 66 64 82 86 71 42 15 16 11 13 35 53 54 51 39 18 16 31 22 4 30 50 45 60 52 65 70
44 44 40 38 33 31 38 47 40 34 9 14 24 17 20 15 19 24 49 84 74 54 10 11 21 21 14 15 11 43 52 47 33 16 18 31 33 56 66 17 19 61 52 55
53 49 48 47 42 36 30 44 36 40 16 31 27 15 12 19 12 13 12 17 32 64 23 26 26 28 13 23 25 19 14 23 45 45 41 24 23 22 14 26 38 57 70 59
55 51 53 49 46 40 36 47 38 39 28 49 41 48 38 30 25 9 23 26 8 13 30 23 25 20 26 22 41 46 36 22 21 28 33 45 36 44 48 56 81 71 65 46
56 55 53 52 49 45 42 58 50 44 46 43 53 53 57 54 56 41 19 19 24 12 8 7 11 15 12 29 32 36 43 47 45 44 34 34 51 55 109 110 88 80 63 57
58 57 58 55 54 51 48 49 56 45 51 44 47 44 33 44 41 37 31 37 29 24 26 10 8 10 13 12 26 47 40 41 42 52 50 41 43 62 71 79 81 86 83 57
55 58 58 57 52 52 46 49 51 47 16 8 22 38 45 32 38 47 54 62 66 58 63 28 20 21 13 23 21 31 19 23 16 17 31 47 68 60 50 60 69 80 93 88
55 53 58 57 52 49 49 51 56 53 39 7 16 32 69 78 62 50 48 44 65 52 21 18 27 25 29 27 35 39 38 43 36 39 45 34 46 72 67 65 67 79 77 82
58 54 54 54 52 48 44 34 56 61 66 19 8 17 32 48 60 61 64 50 43 45 22 14 27 54 33 26 43 45 61 77 96 57 74 72 79 80 88 84 90 87 95 104
52 49 48 48 48 45 47 19 7 6 15 13 7 7 31 55 41 39 42 51 41 39 38 15 32 34 50 34 44 55 87 97 108 114 109 97 106 80 94 86 95 95 105 103
45 41 38 39 40 43 51 67 57 48 34 20 7 5 12 18 17 15 26 19 23 26 36 37 21 32 21 23 36 65 83 90 89 84 73 73 80 92 94 99 104 101 88 85
38 36 33 36 37 29 39 38 37 43 41 6 7 4 13 10 19 18 18 29 14 18 12 25 22 20 16 34 33 32 33 32 48 63 68 79 53 55 69 77 84 85 89 83
28 27 17 12 18 33 25 15 15 19 13 11 6 14 10 15 17 5 3 4 6 6 10 9 9 17 54 36 36 35 41 43 49 53 44 68 74 65 71 79 81 76 85 90
22 14 18 21 21 21 12 8 7 4 3 13 16 21 13 15 8 7 11 5 6 8 9 7 6 10 6 38 43 43 41 45 45 47 56 58 66 80 79 92 93 95 89 84
12 13 18 22 17 10 8 4 1 8 11 9 8 10 18 11 15 9 10 8 7 11 4 5 12 1 23 45 58 58 59 64 65 60 71 75 72 71 80 95 106 107 102 93
20 11 8 8 8 9 13 13 7 5 7 11 9 5 7 9 16 7 5 7 11 4 7 12 7 11 41 52 59 63 62 61 67 69 70 81 87 85 76 91 95 94 93 84
10 11 10 9 6 8 10 9 5 3 5 7 6 5 6 9 4 7 7 11 2 11 11 16 5 39 61 64 65 70 76 77 74 76 76 74 82 88 76 80 80 67 66 68
7 4 7 8 6 2 3 7 11 8 4 10 4 9 6 6 6 8 5 8 12 7 13 11 36 65 66 72 73 76 81 80 81 83 80 81 82 73 71 59 41 35 40 35
9 10 6 2 3 1 4 9 6 11 10 6 2 3 4 11 5 4 10 7 13 4 10 43 61 64 70 75 78 78 77 79 80 78 73 75 67 60 52 34 21 4 16 25
9 3 8 10 17 9 6 4 5 13 7 3 1 6 8 8 7 5 6 5 10 26 50 57 59 66 74 77 77 76 79 76 72 65 64 59 46 36 23 17 16 13 20 30
Wind_Direction_500mb
274 269 268 269 272 268 269 224 208 230 198 191 205 222 219 226 229 228 249 247 257 246 238 246 241 245 229 187 152 170 205 192 235 240 95 336 314 233 207 225 224 236 267 273
275 272 268 258 258 251 254 228 216 203 194 205 215 239 252 251 233 218 209 227 227 230 241 245 241 250 207 185 168 170 173 210 242 259 222 217 208 198 230 237 257 249 223 260
275 288 285 271 255 253 254 241 205 189 213 214 206 216 227 232 230 242 230 227 219 227 243 227 248 248 216 199 207 191 171 174 223 242 245 132 184 212 224 223 236 255 239 256
264 261 272 284 278 256 259 236 204 189 184 229 230 221 215 230 234 216 213 247 227 230 245 247 245 251 248 192 192 122 153 236 237 247 263 265 271 270 251 236 242 247 259 265
284 267 257 273 295 277 260 261 203 193 212 213 218 217 218 234 241 222 224 220 222 227 233 230 246 238 244 226 187 215 197 237 235 255 263 266 259 251 255 260 259 255 254 266
296 280 284 282 294 309 290 269 264 272 200 204 216 220 225 227 233 233 232 224 230 226 230 230 237 245 254 225 228 225 209 221 221 240 234 248 258 243 246 252 255 255 263 255
283 288 286 280 289 282 290 294 294 288 273 234 219 222 218 225 232 229 230 228 230 235 247 249 250 256 248 244 230 230 227 228 229 251 237 229 233 235 235 244 251 256 256 260
284 288 283 277 286 277 281 285 294 263 271 270 276 290 272 240 234 237 240 241 237 249 239 233 238 214 225 235 235 229 222 225 231 227 224 252 227 230 223 233 249 252 252 262
281 281 286 285 271 281 274 274 281 274 286 245 270 297 293 294 277 279 257 250 249 247 190 199 230 230 209 202 224 223 224 222 220 205 229 234 229 238 240 231 255 255 243 246
280 276 277 281 269 266 271 273 270 262 263 279 281 272 302 325 350 325 275 256 230 223 229 237 238 239 198 222 211 200 183 206 221 230 242 243 219 223 111 202 242 243 247 251
283 277 273 275 274 268 264 264 250 256 268 272 260 263 280 286 292 272 314 332 272 202 221 232 231 234 220 228 230 221 214 195 208 228 240 244 222 221 216 236 248 247 255 251
277 276 275 269 269 268 268 266 261 250 249 255 276 271 272 274 272 270 265 297 309 288 302 272 250 234 190 214 233 218 237 229 237 220 231 224 217 220 227 235 250 257 255 259
270 270 272 273 270 264 261 266 279 245 243 262 264 265 274 281 267 261 251 261 256 262 282 327 325 300 3 304 252 257 248 254 252 257 253 243 241 239 242 241 241 251 258 268
275 270 266 270 271 261 263 261 270 270 239 245 268 272 263 277 270 270 259 265 271 281 285 280 258 263 216 264 290 297 279 312 299 300 296 306 293 280 270 268 266 266 266 269
270 274 268 264 266 265 266 264 264 263 245 259 256 269 272 280 277 268 264 262 267 251 264 261 269 283 290 272 270 266 272 276 273 268 276 274 281 287 288 289 273 268 272 275
262 272 271 264 261 263 270 267 266 258 250 255 252 252 263 267 267 274 272 263 258 252 251 264 262 259 261 262 265 272 272 270 262 266 274 281 284 286 282 279 274 274 280 278
260 269 269 261 258 254 239 245 185 198 213 254 277 254 259 263 262 251 260 262 242 249 261 245 258 259 257 260 264 276 275 278 280 282 287 287 281 281 280 275 277 281 278 275
253 264 265 265 266 261 254 252 250 250 236 218 233 251 305 250 244 259 262 259 255 237 249 259 253 262 253 257 255 258 264 267 269 274 282 283 286 288 283 279 277 278 276 279
252 260 267 268 260 253 252 265 255 241 236 247 181 238 283 209 250 286 288 283 273 264 243 246 252 250 241 247 274 332 353 344 321 313 303 302 301 299 294 292 290 287 285 279
259 262 253 228 223 239 241 207 200 204 219 241 225 243 252 282 298 280 290 292 253 244 239 256 219 242 242 16 5 341 336 332 332 334 327 330 318 310 304 301 296 289 283 279
259 222 227 221 200 188 199 200 168 154 259 219 232 217 238 261 229 238 216 245 260 245 247 226 246 262 10 352 345 337 330 325 320 307 299 298 290 292 297 295 291 289 285 278
270 278 207 182 190 183 180 171 92 213 218 215 204 222 208 222 212 222 211 227 236 267 191 224 261 128 353 340 333 330 327 326 321 318 310 309 300 295 292 291 289 287 290 282
262 225 225 198 173 179 178 181 224 239 211 211 202 213 232 207 222 237 242 244 244 336 232 242 286 12 341 333 327 323 323 321 317 313 310 311 307 306 296 296 294 290 285 281
214 195 218 206 190 219 204 200 208 84 74 5 340 260 220 225 231 230 222 234 201 238 243 249 23 344 330 328 326 324 321 322 319 315 314 310 309 311 315 311 303 291 289 288
245 209 242 218 216 155 67 128 132 43 8 338 266 257 255 245 240 215 252 283 242 271 291 358 333 325 321 321 321 319 318 320 319 319 317 316 319 319 317 314 313 289 269 239
206 231 254 160 112 202 51 44 71 9 341 331 270 260 254 245 228 217 227 198 242 322 322 313 315 315 317 317 316 316 316 316 317 316 317 320 323 321 316 320 324 313 191 176
207 208 78 95 69 87 99 59 5 348 337 188 185 224 226 315 254 257 5 299 328 311 306 307 307 308 312 314 316 318 320 318 317 318 328 333 331 327 322 355 40 85 122 136
Wind_Speed_850mb
61 60 62 57 52 58 50 53 10 38 62 29 19 26 21 15 13 30 24 6 23 44 32 27 25 34 27 34 24 24 18 7 23 38 3 5 4 19 30 17 17 22 21 57
71 67 61 59 51 42 50 26 39 40 89 15 14 20 22 16 17 23 23 31 26 26 33 22 28 35 16 32 23 23 18 7 9 22 8 3 15 12 21 26 28 64 22 59
35 31 47 58 60 55 36 28 5 13 45 27 36 36 38 26 38 41 16 13 23 17 24 30 25 36 14 31 28 8 35 13 28 42 36 7 11 19 33 44 35 41 49 70
42 35 25 34 43 59 47 22 13 28 11 27 27 37 20 43 28 29 34 12 34 41 33 44 46 52 34 8 11 12 13 22 29 46 50 41 46 42 43 51 55 51 70 56
40 45 38 26 19 36 44 22 11 18 12 56 50 42 36 48 48 35 32 42 45 49 51 47 42 49 43 31 9 17 14 40 47 59 68 64 57 44 62 62 76 67 58 64
38 46 44 42 38 25 19 29 43 17 26 22 30 45 63 60 56 50 67 52 41 39 55 83 95 83 51 22 32 27 18 21 27 43 50 38 31 72 67 81 67 63 64 74
37 37 39 46 33 34 30 35 40 12 8 18 31 45 54 65 72 67 62 74 49 90 79 40 32 41 51 53 39 49 28 31 25 20 14 31 42 45 64 77 74 64 59 69
41 38 40 38 33 36 42 41 28 11 9 11 28 27 28 61 85 66 64 82 86 71 42 15 16 11 13 35 53 54 51 39 18 16 31 22 4 30 50 45 60 52 65 70
44 44 40 38 33 31 38 47 40 34 9 14 24 17 20 15 19 24 49 84 74 54 10 11 21 21 14 15 11 43 52 47 33 16 18 31 33 56 66 17 19 61 52 55
53 49 48 47 42 36 30 44 36 40 16 31 27 15 12 19 12 13 12 17 32 64 23 26 26 28 13 23 25 19 14 23 45 45 41 24 23 22 14 26 38 57 70 59
55 51 53 49 46 40 36 47 38 39 28 49 41 48 38 30 25 9 23 26 8 13 30 23 25 20 26 22 41 46 36 22 21 28 33 45 36 44 48 56 81 71 65 46
56 55 53 52 49 45 42 58 50 44 46 43 53 53 57 54 56 41 19 19 24 12 8 7 11 15 12 29 32 36 43 47 45 44 34 34 51 55 109 110 88 80 63 57
58 57 58 55 54 51 48 49 56 45 51 44 47 44 33 44 41 37 31 37 29 24 26 10 8 10 13 12 26 47 40 41 42 52 50 41 43 62 71 79 81 86 83 57
55 58 58 57 52 52 46 49 51 47 16 8 22 38 45 32 38 47 54 62 66 58 63 28 20 21 13 23 21 31 19 23 16 17 31 47 68 60 50 60 69 80 93 88
55 53 58 57 52 49 49 51 56 53 39 7 16 32 69 78 62 50 48 44 65 52 21 18 27 25 29 27 35 39 38 43 36 39 45 34 46 72 67 65 67 79 77 82
58 54 54 54 52 48 44 34 56 61 66 19 8 17 32 48 60 61 64 50 43 45 22 14 27 54 33 26 43 45 61 77 96 57 74 72 79 80 88 84 90 87 95 104
52 49 48 48 48 45 47 19 7 6 15 13 7 7 31 55 41 39 42 51 41 39 38 15 32 34 50 34 44 55 87 97 108 114 109 97 106 80 94 86 95 95 105 103
45 41 38 39 40 43 51 67 57 48 34 20 7 5 12 18 17 15 26 19 23 26 36 37 21 32 21 23 36 65 83 90 89 84 73 73 80 92 94 99 104 101 88 85
38 36 33 36 37 29 39 38 37 43 41 6 7 4 13 10 19 18 18 29 14 18 12 25 22 20 16 34 33 32 33 32 48 63 68 79 53 55 69 77 84 85 89 83
28 27 17 12 18 33 25 15 15 19 13 11 6 14 10 15 17 5 3 4 6 6 10 9 9 17 54 36 36 35 41 43 49 53 44 68 74 65 71 79 81 76 85 90
22 14 18 21 21 21 12 8 7 4 3 13 16 21 13 15 8 7 11 5 6 8 9 7 6 10 6 38 43 43 41 45 45 47 56 58 66 80 79 92 93 95 89 84
12 13 18 22 17 10 8 4 1 8 11 9 8 10 18 11 15 9 10 8 7 11 4 5 12 1 23 45 58 58 59 64 65 60 71 75 72 71 80 95 106 107 102 93
20 11 8 8 8 9 13 13 7 5 7 11 9 5 7 9 16 7 5 7 11 4 7 12 7 11 41 52 59 63 62 61 67 69 70 81 87 85 76 91 95 94 93 84
10 11 10 9 6 8 10 9 5 3 5 7 6 5 6 9 4 7 7 11 2 11 11 16 5 39 61 64 65 70 76 77 74 76 76 74 82 88 76 80 80 67 66 68
7 4 7 8 6 2 3 7 11 8 4 10 4 9 6 6 6 8 5 8 12 7 13 11 36 65 66 72 73 76 81 80 81 83 80 81 82 73 71 59 41 35 40 35
9 10 6 2 3 1 4 9 6 11 10 6 2 3 4 11 5 4 10 7 13 4 10 43 61 64 70 75 78 78 77 79 80 78 73 75 67 60 52 34 21 4 16 25
9 3 8 10 17 9 6 4 5 13 7 3 1 6 8 8 7 5 6 5 10 26 50 57 59 66 74 77 77 76 79 76 72 65 64 59 46 36 23 17 16 13 20 30
Wind_Direction_850mb
274 269 268 269 272 268 269 224 208 230 198 191 205 222 219 226 229 228 249 247 257 246 238 246 241 245 229 187 152 170 205 192 235 240 95 336 314 233 207 225 224 236 267 273
275 272 268 258 258 251 254 228 216 203 194 205 215 239 252 251 233 218 209 227 227 230 241 245 241 250 207 185 168 170 173 210 242 259 222 217 208 198 230 237 257 249 223 260
275 288 285 271 255 253 254 241 205 189 213 214 206 216 227 232 230 242 230 227 219 227 243 227 248 248 216 199 207 191 171 174 223 242 245 132 184 212 224 223 236 255 239 256
264 261 272 284 278 256 259 236 204 189 184 229 230 221 215 230 234 216 213 247 227 230 245 247 245 251 248 192 192 122 153 236 237 247 263 265 271 270 251 236 242 247 259 265
284 267 257 273 295 277 260 261 203 193 212 213 218 217 218 234 241 222 224 220 222 227 233 230 246 238 244 226 187 215 197 237 235 255 263 266 259 251 255 260 259 255 254 266
296 280 284 282 294 309 290 269 264 272 200 204 216 220 225 227 233 233 232 224 230 226 230 230 237 245 254 225 228 225 209 221 221 240 234 248 258 243 246 252 255 255 263 255
283 288 286 280 289 282 290 294 294 288 273 234 219 222 218 225 232 229 230 228 230 235 247 249 250 256 248 244 230 230 227 228 229 251 237 229 233 235 235 244 251 256 256 260
284 288 283 277 286 277 281 285 294 263 271 270 276 290 272 240 234 237 240 241 237 249 239 233 238 214 225 235 235 229 222 225 231 227 224 252 227 230 223 233 249 252 252 262
281 281 286 285 271 281 274 274 281 274 286 245 270 297 293 294 277 279 257 250 249 247 190 199 230 230 209 202 224 223 224 222 220 205 229 234 229 238 240 231 255 255 243 246
280 276 277 281 269 266 271 273 270 262 263 279 281 272 302 325 350 325 275 256 230 223 229 237 238 239 198 222 211 200 183 206 221 230 242 243 219 223 111 202 242 243 247 251
283 277 273 275 274 268 264 264 250 256 268 272 260 263 280 286 292 272 314 332 272 202 221 232 231 234 220 228 230 221 214 195 208 228 240 244 222 221 216 236 248 247 255 251
277 276 275 269 269 268 268 266 261 250 249 255 276 271 272 274 272 270 265 297 309 288 302 272 250 234 190 214 233 218 237 229 237 220 231 224 217 220 227 235 250 257 255 259
270 270 272 273 270 264 261 266 279 245 243 262 264 265 274 281 267 261 251 261 256 262 282 327 325 300 3 304 252 257 248 254 252 257 253 243 241 239 242 241 241 251 258 268
275 270 266 270 271 261 263 261 270 270 239 245 268 272 263 277 270 270 259 265 271 281 285 280 258 263 216 264 290 297 279 312 299 300 296 306 293 280 270 268 266 266 266 269
270 274 268 264 266 265 266 264 264 263 245 259 256 269 272 280 277 268 264 262 267 251 264 261 269 283 290 272 270 266 272 276 273 268 276 274 281 287 288 289 273 268 272 275
262 272 271 264 261 263 270 267 266 258 250 255 252 252 263 267 267 274 272 263 258 252 251 264 262 259 261 262 265 272 272 270 262 266 274 281 284 286 282 279 274 274 280 278
260 269 269 261 258 254 239 245 185 198 213 254 277 254 259 263 262 251 260 262 242 249 261 245 258 259 257 260 264 276 275 278 280 282 287 287 281 281 280 275 277 281 278 275
253 264 265 265 266 261 254 252 250 250 236 218 233 251 305 250 244 259 262 259 255 237 249 259 253 262 253 257 255 258 264 267 269 274 282 283 286 288 283 279 277 278 276 279
252 260 267 268 260 253 252 265 255 241 236 247 181 238 283 209 250 286 288 283 273 264 243 246 252 250 241 247 274 332 353 344 321 313 303 302 301 299 294 292 290 287 285 279
259 262 253 228 223 239 241 207 200 204 219 241 225 243 252 282 298 280 290 292 253 244 239 256 219 242 242 16 5 341 336 332 332 334 327 330 318 310 304 301 296 289 283 279
259 222 227 221 200 188 199 200 168 154 259 219 232 217 238 261 229 238 216 245 260 245 247 226 246 262 10 352 345 337 330 325 320 307 299 298 290 292 297 295 291 289 285 278
270 278 207 182 190 183 180 171 92 213 218 215 204 222 208 222 212 222 211 227 236 267 191 224 261 128 353 340 333 330 327 326 321 318 310 309 300 295 292 291 289 287 290 282
262 225 225 198 173 179 178 181 224 239 211 211 202 213 232 207 222 237 242 244 244 336 232 242 286 12 341 333 327 323 323 321 317 313 310 311 307 306 296 296 294 290 285 281
214 195 218 206 190 219 204 200 208 84 74 5 340 260 220 225 231 230 222 234 201 238 243 249 23 344 330 328 326 324 321 322 319 315 314 310 309 311 315 311 303 291 289 288
245 209 242 218 216 155 67 128 132 43 8 338 266 257 255 245 240 215 252 283 242 271 291 358 333 325 321 321 321 319 318 320 319 319 317 316 319 319 317 314 313 289 269 239
206 231 254 160 112 202 51 44 71 9 341 331 270 260 254 245 228 217 227 198 242 322 322 313 315 315 317 317 316 316 316 316 317 316 317 320 323 321 316 320 324 313 191 176
207 208 78 95 69 87 99 59 5 348 337 188 185 224 226 315 254 257 5 299 328 311 306 307 307 308 312 314 316 318 320 318 317 318 328 333 331 327 322 355 40 85 122 136